This is the latest recevied weather packets stored in our database for station/object EB1HRW. If no packets are shown the sender has not sent any weather packets the latest 10 day(s).
| Time | Temp. | Humidity | Pressure | Rain* | Wind** | Luminosity | Snow |
|---|---|---|---|---|---|---|---|
| 1777563508 | 17.22° C | 66% | 1016.2 hPa | 0 mm | - | - | - |
| 1777562608 | 17.22° C | 66% | 1016.2 hPa | 0 mm | - | - | - |
| 1777561709 | 16.67° C | 68% | 1016.3 hPa | 0 mm | - | - | - |
| 1777560807 | 16.67° C | 65% | 1016.4 hPa | 0 mm | - | - | - |
| 1777559907 | 16.67° C | 68% | 1016.4 hPa | 0 mm | - | - | - |
| 1777559009 | 16.67° C | 65% | 1016.4 hPa | 0 mm | - | - | - |
| 1777557209 | 16.11° C | 66% | 1016.6 hPa | 0 mm | - | - | - |
| 1777556308 | 16.11° C | 66% | 1016.7 hPa | 0 mm | - | - | - |
| 1777553608 | 15.56° C | 74% | 1016.4 hPa | 0 mm | - | - | - |
| 1777551809 | 15.56° C | 80% | 1016.5 hPa | 0 mm | - | - | - |
| 1777549108 | 12.78° C | 74% | 1016.8 hPa | 0 mm | - | - | - |
| 1777547307 | 12.22° C | 74% | 1016.9 hPa | 0 mm | - | - | - |
| 1777546407 | 12.22° C | 75% | 1017 hPa | 0 mm | - | - | - |
| 1777545506 | 11.67° C | 75% | 1016.9 hPa | 0 mm | - | - | - |
| 1777544606 | 11.67° C | 77% | 1017 hPa | 0 mm | - | - | - |
| 1777543706 | 11.67° C | 77% | 1017 hPa | 0 mm | - | - | - |
| 1777542809 | 11.11° C | 77% | 1016.9 hPa | 0 mm | - | - | - |
| 1777541908 | 10.56° C | 77% | 1016.9 hPa | 0 mm | - | - | - |
| 1777541009 | 10.56° C | 77% | 1016.7 hPa | 0 mm | - | - | - |
| 1777540107 | 10.56° C | 78% | 1016.5 hPa | 0 mm | - | - | - |
| 1777539207 | 10.56° C | 78% | 1016.4 hPa | 0 mm | - | - | - |
| 1777538307 | 10° C | 78% | 1016.3 hPa | 0 mm | - | - | - |
| 1777537408 | 10° C | 78% | 1016.1 hPa | 0 mm | - | - | - |
| 1777536507 | 10° C | 78% | 1016 hPa | 0 mm | - | - | - |
| 1777535606 | 10.56° C | 78% | 1015.8 hPa | 0 mm | - | - | - |
* Rain latest hour (hover to see other rain measurements)
** Current wind speed in m/s (hover to see current wind gust speed)